"startDT [UTC]","vpos","CH4 [ppm]","stdev(CH4) [ppm]","CO2 [ppm]","stdev(CO2) [ppm]","H2O [ppm]","stdev(H2O)","p_LGR [torr]","T_LGR [C]","mt1_LGR [us]","mt2_LGR [us]","T_ECpre [C]","T_EC1 [C]","T_EC2 [C]","p_inlet [hPa]","p_in [hPa]","p_out [hPa]","T_inlet [C]","RH_inlet [%]","dwpt_inlet [C]","T_vent [C]","RH_vent [%]","dwpt_vent [C]","flow_vent [l min-1]","flow_inlet [l min-1]","dwpt_sample [C]","T_room [C]"
2012-06-22 00:00:00,0.0,1.8842,0.0008,399.08,0.27,4.6,11.3,138.06,30.76,24.64,36.42,0.91,-26.32,12.39,-53,532,-933,21.9,21.3,-1.2,22.3,1.9,-30.0,5.73,2.38,-28.6,28.6
2012-06-22 00:01:00,0.0,1.8842,0.0010,399.21,0.24,3.4,9.3,138.06,30.76,24.64,36.42,0.93,-26.30,12.67,-53,532,-934,21.9,21.4,-1.2,22.3,1.9,-30.0,5.73,2.38,-28.6,28.6
2012-06-22 00:02:00,0.0,1.8838,0.0007,399.01,0.29,3.2,8.8,138.06,30.76,24.65,36.42,0.94,-26.30,12.94,-53,532,-934,21.9,22.1,-0.7,22.3,1.9,-30.0,5.73,2.36,-28.6,28.6
2012-06-22 00:03:00,0.0,1.8840,0.0009,399.02,0.25,4.8,13.1,138.06,30.76,24.64,36.42,0.95,-26.29,13.19,-53,532,-934,21.9,22.1,-0.7,22.3,1.9,-30.0,5.73,2.35,-28.6,28.6
2012-06-22 00:04:00,0.0,1.8845,0.0010,399.22,0.31,4.1,12.1,138.06,30.76,24.64,36.41,0.95,-26.28,13.43,-53,532,-934,21.9,21.9,-0.8,22.3,1.9,-30.0,5.73,2.38,-28.5,28.6
2012-06-22 00:05:00,0.0,1.8842,0.0010,399.14,0.32,3.3,11.7,138.06,30.76,24.64,36.42,0.92,-26.27,13.67,-53,532,-933,21.9,22.0,-0.7,22.3,1.9,-30.0,5.73,2.38,-28.5,28.6
2012-06-22 00:06:00,0.0,1.8839,0.0009,398.78,0.34,5.2,12.3,138.06,30.77,24.64,36.43,0.90,-26.27,13.90,-53,532,-934,21.9,23.3,-0.0,22.4,1.9,-30.0,5.73,2.36,-28.6,28.5
2012-06-22 00:07:00,0.0,1.8840,0.0008,399.00,0.31,2.7,8.5,138.06,30.77,24.64,36.41,0.88,-26.26,14.11,-54,532,-934,21.9,23.2,-0.0,22.3,1.9,-30.0,5.73,2.35,-28.6,28.5
2012-06-22 00:08:00,0.0,1.8844,0.0009,398.92,0.25,5.6,13.0,138.06,30.77,24.64,36.42,0.89,-26.25,14.32,-54,532,-934,21.9,22.3,-0.5,22.4,1.9,-30.0,5.73,2.38,-28.6,28.6
2012-06-22 00:09:00,0.0,1.8843,0.0008,399.05,0.28,5.0,11.3,138.07,30.77,24.64,36.42,0.91,-26.25,14.51,-53,532,-933,21.9,22.0,-0.7,22.4,1.9,-30.0,5.73,2.38,-28.5,28.6
2012-06-22 00:10:00,0.0,1.8850,0.0009,399.11,0.25,1.6,7.0,138.06,30.77,24.64,36.42,0.91,-26.24,14.70,-53,532,-933,21.9,21.6,-1.0,22.4,1.9,-29.9,5.73,2.35,-28.5,28.6
2012-06-22 00:11:00,0.0,1.8846,0.0011,399.08,0.29,5.3,14.4,138.06,30.77,24.64,36.41,0.91,-26.24,14.88,-54,532,-934,21.9,22.6,-0.4,22.4,1.9,-30.0,5.73,2.35,-28.6,28.5
2012-06-22 00:12:00,0.0,1.8842,0.0009,399.11,0.31,5.1,12.8,138.06,30.78,24.64,36.41,0.92,-26.23,15.05,-54,532,-934,21.9,22.6,-0.4,22.4,1.9,-30.0,5.73,2.38,-28.5,28.6
2012-06-22 00:13:00,0.0,1.8851,0.0010,399.22,0.31,2.1,7.7,138.06,30.78,24.64,36.42,0.93,-26.22,15.22,-54,532,-934,21.9,21.2,-1.3,22.4,1.9,-30.0,5.73,2.38,-28.5,28.6
2012-06-22 00:14:00,0.0,1.8845,0.0009,399.17,0.28,5.1,12.9,138.06,30.78,24.64,36.42,0.95,-26.22,15.37,-54,532,-933,21.9,21.5,-1.1,22.4,1.9,-30.0,5.73,2.35,-28.5,28.6
2012-06-22 00:15:00,0.0,1.8842,0.0010,399.08,0.24,2.8,9.6,138.07,30.77,24.64,36.41,0.95,-26.21,15.52,-54,532,-934,21.9,22.0,-0.7,22.4,1.9,-29.9,5.73,2.35,-28.5,28.6
2012-06-22 00:16:00,0.0,1.8842,0.0009,399.09,0.34,6.2,15.1,138.06,30.77,24.64,36.42,0.95,-26.21,15.66,-54,532,-934,22.0,22.5,-0.4,22.4,1.9,-30.0,5.73,2.38,-28.5,28.6
2012-06-22 00:17:00,0.0,1.8847,0.0010,399.15,0.29,5.1,12.6,138.06,30.78,24.64,36.42,0.93,-26.21,15.80,-54,532,-934,21.9,21.5,-1.1,22.4,1.9,-29.9,5.73,2.37,-28.5,28.6
2012-06-22 00:18:00,0.0,1.8840,0.0011,399.18,0.31,7.1,16.6,138.06,30.78,24.64,36.42,0.92,-26.21,15.93,-54,532,-933,22.0,21.6,-1.0,22.4,1.9,-29.9,5.73,2.35,-28.5,28.6
2012-06-22 00:19:00,0.0,1.8849,0.0009,399.32,0.29,4.8,12.7,138.06,30.78,24.64,36.41,0.87,-26.20,16.06,-54,532,-934,22.0,21.1,-1.2,22.4,1.9,-29.9,5.73,2.36,-28.5,28.6
2012-06-22 00:20:00,0.0,1.8847,0.0009,399.33,0.34,6.3,13.8,138.06,30.78,24.65,36.41,0.90,-26.20,16.17,-54,532,-934,22.0,21.0,-1.4,22.4,1.9,-29.9,5.73,2.38,-28.5,28.7
2012-06-22 00:21:00,0.0,1.8848,0.0009,399.28,0.28,5.0,12.9,138.06,30.78,24.64,36.41,0.89,-26.20,16.29,-54,532,-934,22.0,21.2,-1.2,22.4,1.9,-29.9,5.73,2.37,-28.5,28.6
2012-06-22 00:22:00,0.0,1.8847,0.0010,399.13,0.26,4.8,12.7,138.06,30.78,24.64,36.42,0.90,-26.19,16.40,-54,532,-934,22.0,21.5,-1.0,22.4,1.9,-29.9,5.73,2.35,-28.5,28.6
2012-06-22 00:23:00,0.0,1.8852,0.0009,399.16,0.31,5.7,16.1,138.06,30.78,24.64,36.42,0.92,-26.20,16.51,-54,532,-933,22.0,21.7,-0.9,22.4,1.9,-29.9,5.73,2.36,-28.5,28.7
2012-06-22 00:24:00,0.0,1.8857,0.0008,399.19,0.28,3.0,8.4,138.06,30.78,24.64,36.42,0.92,-26.20,16.60,-54,532,-934,22.0,21.0,-1.3,22.5,1.9,-29.9,5.73,2.39,-28.5,28.6
2012-06-22 00:25:00,0.0,1.8848,0.0009,399.22,0.25,4.9,12.4,138.06,30.78,24.64,36.41,0.93,-26.19,16.70,-54,532,-934,22.0,21.7,-0.8,22.5,1.9,-29.9,5.73,2.37,-28.5,28.6
2012-06-22 00:26:00,0.0,1.8850,0.0010,399.17,0.28,2.7,8.5,138.06,30.78,24.64,36.42,0.93,-26.19,16.79,-54,533,-934,22.0,21.7,-0.8,22.5,1.9,-29.9,5.73,2.34,-28.5,28.6
2012-06-22 00:27:00,0.0,1.8848,0.0010,399.27,0.33,4.0,12.5,138.06,30.78,24.64,36.41,0.94,-26.19,16.88,-54,533,-934,22.0,21.6,-0.9,22.5,1.9,-29.9,5.73,2.36,-28.5,28.6
2012-06-22 00:28:00,0.0,1.8850,0.0010,399.18,0.26,1.1,5.8,138.06,30.78,24.64,36.42,0.94,-26.19,16.96,-54,533,-934,22.1,21.8,-0.8,22.5,1.9,-29.9,5.73,2.38,-28.5,28.6
2012-06-22 00:29:00,0.0,1.8848,0.0009,399.18,0.31,2.1,7.4,138.06,30.78,24.64,36.42,0.94,-26.19,17.05,-54,532,-934,22.1,21.6,-0.9,22.5,1.9,-29.9,5.73,2.37,-28.5,28.6
2012-06-22 00:30:00,0.0,1.8851,0.0008,399.17,0.35,4.0,12.1,138.06,30.78,24.64,36.41,0.91,-26.18,17.13,-54,532,-934,22.1,21.9,-0.7,22.5,1.9,-29.9,5.73,2.35,-28.5,28.6
2012-06-22 00:31:00,0.0,1.8849,0.0009,399.23,0.25,5.6,12.4,138.06,30.78,24.64,36.42,0.90,-26.18,17.20,-54,533,-934,22.1,21.7,-0.8,22.5,1.9,-29.9,5.73,2.37,-28.5,28.7
2012-06-22 00:32:00,0.0,1.8848,0.0009,399.17,0.30,4.4,12.1,138.06,30.78,24.64,36.42,0.89,-26.18,17.27,-54,533,-934,22.1,22.2,-0.5,22.5,1.9,-29.9,5.73,2.39,-28.5,28.6
2012-06-22 00:33:00,0.0,1.8846,0.0009,399.11,0.33,2.5,10.1,138.06,30.78,24.64,36.42,0.89,-26.18,17.34,-54,533,-934,22.1,22.5,-0.4,22.5,1.9,-29.9,5.73,2.36,-28.5,28.6
2012-06-22 00:34:00,0.0,1.8856,0.0010,399.19,0.31,3.6,13.6,138.06,30.78,24.64,36.42,0.89,-26.18,17.40,-54,533,-934,22.1,21.7,-0.8,22.5,1.9,-29.9,5.73,2.35,-28.4,28.7
2012-06-22 00:35:00,0.0,1.8859,0.0009,399.21,0.30,2.5,8.5,138.06,30.79,24.64,36.42,0.89,-26.17,17.46,-54,533,-934,22.1,21.7,-0.8,22.5,1.9,-29.9,5.73,2.37,-28.5,28.6
2012-06-22 00:36:00,0.0,1.8863,0.0010,399.23,0.30,2.1,7.3,138.06,30.78,24.64,36.41,0.91,-26.17,17.52,-54,533,-934,22.1,22.0,-0.6,22.5,1.9,-29.9,5.73,2.38,-28.4,28.6
2012-06-22 00:37:00,0.0,1.8856,0.0009,399.05,0.27,5.4,11.8,138.06,30.79,24.64,36.42,0.93,-26.17,17.58,-54,533,-934,22.1,22.7,-0.2,22.5,1.9,-29.8,5.73,2.37,-28.5,28.6
2012-06-22 00:38:00,0.0,1.8858,0.0009,399.16,0.30,10.6,17.1,138.06,30.79,24.64,36.42,0.92,-26.17,17.63,-54,533,-934,22.1,21.9,-0.7,22.5,1.9,-29.9,5.73,2.35,-28.5,28.6
2012-06-22 00:39:00,0.0,1.8859,0.0008,399.18,0.32,6.2,14.9,138.06,30.79,24.64,36.41,0.93,-26.16,17.68,-54,533,-934,22.1,21.7,-0.8,22.5,1.9,-29.9,5.73,2.36,-28.5,28.7
2012-06-22 00:40:00,0.0,1.8863,0.0009,399.27,0.29,4.6,10.6,138.06,30.79,24.64,36.41,0.95,-26.16,17.73,-54,533,-934,22.1,21.2,-1.1,22.5,1.9,-29.9,5.73,2.39,-28.4,28.6
2012-06-22 00:41:00,0.0,1.8857,0.0008,399.20,0.27,8.9,19.3,138.06,30.79,24.64,36.42,0.94,-26.16,17.78,-54,533,-934,22.1,21.3,-1.0,22.5,1.8,-30.0,5.73,2.37,-28.4,28.6
2012-06-22 00:42:00,0.0,1.8859,0.0009,399.27,0.27,3.5,8.3,138.06,30.79,24.64,36.41,0.94,-26.16,17.82,-54,533,-934,22.1,21.3,-1.0,22.5,1.8,-30.0,5.73,2.35,-28.4,28.6
2012-06-22 00:43:00,0.0,1.8856,0.0010,399.18,0.30,3.4,9.4,138.06,30.79,24.64,36.42,0.93,-26.16,17.87,-54,533,-934,22.2,21.7,-0.7,22.6,1.9,-30.0,5.73,2.37,-28.4,28.6
2012-06-22 00:44:00,0.0,1.8850,0.0009,399.19,0.29,10.7,20.5,138.06,30.79,24.64,36.42,0.93,-26.16,17.91,-54,533,-934,22.2,21.8,-0.7,22.6,1.8,-30.0,5.73,2.39,-28.4,28.6
2012-06-22 00:45:00,0.0,1.8861,0.0012,399.25,0.27,4.0,11.4,138.06,30.79,24.64,36.41,0.90,-26.16,17.95,-54,533,-934,22.1,21.7,-0.8,22.6,1.8,-30.0,5.73,2.37,-28.4,28.6
2012-06-22 00:46:00,0.0,1.8869,0.0012,399.19,0.29,8.3,15.5,138.06,30.79,24.64,36.42,0.89,-26.16,17.99,-54,533,-934,22.2,22.0,-0.6,22.6,1.8,-30.0,5.73,2.35,-28.4,28.6
2012-06-22 00:47:00,0.0,1.8872,0.0011,399.28,0.31,5.0,12.5,138.06,30.79,24.64,36.42,0.90,-26.16,18.02,-54,533,-934,22.2,21.5,-0.9,22.6,1.9,-30.0,5.73,2.36,-28.4,28.6
2012-06-22 00:48:00,0.0,1.8860,0.0009,399.15,0.30,6.0,14.3,138.06,30.80,24.64,36.42,0.89,-26.16,18.05,-54,533,-934,22.2,22.2,-0.4,22.6,1.8,-30.0,5.73,2.39,-28.5,28.6
2012-06-22 00:49:00,0.0,1.8863,0.0011,399.24,0.31,7.6,16.3,138.06,30.79,24.64,36.41,0.91,-26.15,18.09,-54,533,-934,22.2,22.3,-0.3,22.6,1.8,-30.0,5.73,2.37,-28.4,28.6
2012-06-22 00:50:00,0.0,1.8866,0.0010,399.26,0.28,5.6,14.8,138.07,30.79,24.64,36.42,0.91,-26.16,18.12,-54,533,-934,22.2,21.8,-0.7,22.6,1.9,-29.9,5.73,2.36,-28.4,28.6
2012-06-22 00:51:00,0.0,1.8866,0.0010,399.23,0.26,2.7,10.9,138.06,30.79,24.64,36.42,0.91,-26.16,18.15,-54,533,-934,22.2,21.6,-0.8,22.6,1.8,-30.0,5.73,2.36,-28.4,28.6
2012-06-22 00:52:00,0.0,1.8866,0.0008,399.27,0.31,4.4,10.5,138.07,30.79,24.64,36.41,0.92,-26.16,18.18,-54,533,-934,22.2,21.5,-0.8,22.6,1.8,-30.0,5.73,2.38,-28.4,28.6
2012-06-22 00:53:00,0.0,1.8867,0.0011,399.23,0.26,8.2,17.0,138.06,30.80,24.64,36.42,0.94,-26.16,18.21,-54,533,-934,22.2,21.6,-0.7,22.7,1.8,-29.9,5.73,2.38,-28.4,28.6
2012-06-22 00:54:00,0.0,1.8869,0.0009,399.36,0.29,4.2,9.9,138.06,30.80,24.64,36.41,0.93,-26.16,18.23,-54,533,-934,22.2,21.2,-1.0,22.7,1.8,-30.0,5.73,2.36,-28.4,28.6
2012-06-22 00:55:00,0.0,1.8873,0.0008,399.44,0.32,9.8,15.7,138.06,30.80,24.64,36.41,0.94,-26.15,18.26,-54,533,-934,22.3,21.1,-1.1,22.7,1.8,-30.0,5.73,2.36,-28.4,28.6
2012-06-22 00:56:00,0.0,1.8871,0.0009,399.38,0.32,4.1,11.9,138.06,30.80,24.64,36.41,0.94,-26.16,18.28,-54,533,-934,22.3,21.1,-1.0,22.7,1.8,-29.9,5.73,2.38,-28.4,28.6
2012-06-22 00:57:00,0.0,1.8868,0.0009,399.27,0.29,4.8,10.6,138.07,30.80,24.64,36.42,0.94,-26.16,18.31,-54,533,-934,22.3,21.3,-0.9,22.7,1.8,-29.9,5.73,2.39,-28.4,28.6
2012-06-22 00:58:00,0.0,1.8866,0.0010,399.30,0.30,6.0,14.5,138.06,30.80,24.64,36.42,0.92,-26.16,18.33,-54,533,-934,22.3,21.3,-0.9,22.7,1.8,-30.0,5.73,2.37,-28.4,28.6
2012-06-22 00:59:00,0.0,1.8868,0.0010,399.19,0.33,8.8,16.2,138.06,30.80,24.64,36.42,0.92,-26.15,18.35,-54,534,-934,22.3,21.4,-0.8,22.7,1.8,-29.9,5.73,2.35,-28.4,28.6
2012-06-22 01:00:00,0.0,1.8864,0.0010,399.16,0.29,7.1,16.5,138.07,30.80,24.64,36.42,0.90,-26.16,18.37,-54,534,-934,22.3,21.5,-0.8,22.7,1.9,-29.9,5.73,2.37,-28.4,28.6
2012-06-22 01:01:00,0.0,1.8872,0.0011,399.34,0.36,3.8,11.1,138.06,30.80,24.64,36.42,0.90,-26.16,18.39,-54,533,-934,22.3,21.1,-1.0,22.7,1.8,-29.9,5.73,2.39,-28.4,28.6
2012-06-22 01:02:00,0.0,1.8876,0.0011,399.37,0.35,6.0,15.1,138.06,30.81,24.64,36.41,0.89,-26.16,18.41,-54,533,-934,22.3,20.9,-1.1,22.7,1.8,-29.9,5.73,2.38,-28.4,28.6
2012-06-22 01:03:00,0.0,1.8868,0.0008,399.25,0.24,6.0,13.0,138.06,30.81,24.64,36.42,0.90,-26.16,18.43,-54,534,-934,22.3,21.4,-0.8,22.7,1.8,-29.9,5.73,2.36,-28.4,28.6
2012-06-22 01:04:00,0.0,1.8874,0.0009,399.45,0.29,6.3,16.3,138.06,30.81,24.64,36.41,0.91,-26.16,18.45,-54,534,-934,22.3,21.1,-1.0,22.7,1.8,-30.0,5.73,2.36,-28.4,28.6
2012-06-22 01:05:00,0.0,1.8869,0.0011,399.37,0.27,11.9,21.5,138.07,30.81,24.64,36.41,0.90,-26.16,18.46,-54,534,-934,22.3,21.0,-1.0,22.7,1.8,-30.0,5.73,2.38,-28.4,28.6
2012-06-22 01:06:00,0.0,1.8871,0.0010,399.47,0.31,5.8,14.7,138.07,30.81,24.64,36.41,0.92,-26.16,18.48,-54,534,-934,22.3,21.0,-1.1,22.7,1.8,-30.1,5.73,2.39,-28.4,28.6
2012-06-22 01:07:00,0.0,1.8874,0.0010,399.41,0.30,6.8,15.7,138.07,30.81,24.64,36.41,0.93,-26.17,18.49,-54,534,-934,22.3,21.1,-1.0,22.7,1.8,-30.1,5.73,2.37,-28.4,28.6
2012-06-22 01:08:00,0.0,1.8869,0.0009,399.35,0.26,8.7,17.0,138.07,30.81,24.64,36.42,0.93,-26.17,18.51,-54,534,-934,22.3,21.1,-1.0,22.7,1.8,-30.1,5.73,2.36,-28.4,28.6
2012-06-22 01:09:00,0.0,1.8866,0.0010,399.31,0.32,9.8,18.9,138.06,30.81,24.64,36.41,0.93,-26.17,18.52,-54,534,-934,22.3,21.3,-0.9,22.7,1.8,-30.1,5.73,2.37,-28.4,28.6
2012-06-22 01:10:00,0.0,1.8871,0.0009,399.25,0.33,4.7,13.1,138.06,30.81,24.64,36.42,0.94,-26.17,18.54,-54,534,-934,22.4,21.5,-0.7,22.7,1.8,-30.1,5.73,2.39,-28.4,28.6
2012-06-22 01:11:00,0.0,1.8868,0.0009,399.24,0.31,5.5,14.4,138.06,30.81,24.64,36.42,0.97,-26.17,18.51,-54,534,-934,22.4,21.4,-0.8,22.8,1.8,-30.0,5.73,2.39,-28.4,28.6
2012-06-22 01:12:00,0.0,1.8872,0.0008,399.28,0.28,4.3,11.3,138.06,30.81,24.64,36.42,1.01,-26.16,17.35,-54,534,-934,22.4,21.3,-0.8,22.8,1.8,-30.0,5.73,2.37,-28.4,28.6
2012-06-22 01:13:00,0.0,1.8864,0.0012,399.16,0.26,2.2,8.9,138.06,30.81,24.64,36.42,1.11,-26.16,15.14,-54,534,-934,22.4,21.8,-0.5,22.8,1.8,-30.0,5.73,2.36,-28.4,28.6
2012-06-22 01:14:00,0.0,1.8868,0.0009,399.30,0.28,8.5,15.6,138.06,30.81,24.64,36.42,1.00,-26.16,12.75,-54,534,-934,22.4,21.2,-0.9,22.8,1.8,-30.0,5.73,2.37,-28.4,28.5
2012-06-22 01:15:00,0.0,1.8867,0.0007,399.20,0.25,9.0,16.6,138.07,30.81,24.64,36.42,0.96,-26.17,10.39,-54,534,-934,22.4,21.5,-0.7,22.8,1.8,-30.0,5.73,2.39,-28.4,28.4
2012-06-22 01:16:00,0.0,1.8864,0.0009,399.24,0.29,6.2,16.9,138.06,30.81,24.64,36.42,1.05,-26.17,8.09,-54,534,-934,22.4,21.6,-0.6,22.8,1.8,-30.0,5.73,2.39,-28.4,28.5
2012-06-22 01:17:00,0.0,1.8865,0.0008,399.33,0.27,5.0,12.5,138.06,30.82,24.64,36.41,1.07,-26.17,5.90,-54,534,-934,22.4,21.5,-0.7,22.8,1.8,-30.0,5.73,2.38,-28.4,28.5
2012-06-22 01:18:00,0.0,1.8870,0.0009,399.32,0.27,7.7,16.6,138.06,30.82,24.64,36.42,0.97,-26.17,3.81,-54,534,-934,22.4,21.2,-0.9,22.8,1.8,-30.0,5.73,2.37,-28.5,28.5
2012-06-22 01:19:00,0.0,1.8866,0.0010,399.35,0.32,5.6,16.0,138.06,30.82,24.64,36.41,1.01,-26.17,1.83,-54,534,-934,22.4,21.3,-0.8,22.8,1.8,-30.0,5.73,2.37,-28.5,28.4
2012-06-22 01:20:00,0.0,1.8870,0.0010,399.34,0.28,7.7,16.2,138.06,30.82,24.64,36.42,1.09,-26.17,-0.05,-54,534,-934,22.4,21.4,-0.7,22.8,1.8,-30.0,5.73,2.38,-28.5,28.4
2012-06-22 01:21:00,0.0,1.8873,0.0010,399.54,0.31,5.0,12.4,138.06,30.82,24.64,36.41,0.99,-26.17,-1.82,-55,534,-934,22.4,20.9,-1.1,22.8,1.8,-30.1,5.73,2.39,-28.5,28.3
2012-06-22 01:22:00,0.0,1.8866,0.0009,399.35,0.27,3.7,11.7,138.07,30.82,24.64,36.42,0.98,-26.17,-3.43,-55,534,-934,22.4,21.1,-1.0,22.8,1.8,-30.0,5.73,2.39,-28.5,28.2
2012-06-22 01:23:00,0.0,1.8862,0.0011,399.27,0.31,3.5,11.5,138.07,30.82,24.64,36.41,1.07,-26.18,-4.84,-55,534,-934,22.4,22.2,-0.3,22.7,1.8,-30.0,5.73,2.39,-28.5,28.2
2012-06-22 01:24:00,0.0,1.8867,0.0011,399.28,0.36,5.5,12.2,138.07,30.82,24.64,36.42,1.03,-26.18,-6.12,-55,534,-934,22.3,21.6,-0.7,22.7,1.8,-30.1,5.73,2.40,-28.5,28.2
2012-06-22 01:25:00,0.0,1.8868,0.0010,399.32,0.31,7.0,18.7,138.07,30.82,24.64,36.41,0.95,-26.19,-7.55,-55,534,-934,22.4,21.1,-1.0,22.7,1.8,-30.0,5.73,2.39,-28.5,28.2
2012-06-22 01:26:00,0.0,1.8868,0.0009,399.32,0.26,8.3,17.2,138.06,30.82,24.64,36.41,1.00,-26.19,-8.85,-55,534,-934,22.4,21.1,-1.0,22.7,1.8,-30.0,5.73,2.39,-28.5,28.2
2012-06-22 01:27:00,0.0,1.8866,0.0010,399.28,0.32,4.4,10.9,138.07,30.82,24.64,36.41,1.07,-26.20,-9.96,-55,534,-934,22.3,21.4,-0.8,22.7,1.8,-30.1,5.73,2.39,-28.6,28.1
2012-06-22 01:28:00,0.0,1.8866,0.0010,399.33,0.29,4.6,14.6,138.07,30.82,24.64,36.41,1.01,-26.21,-11.04,-55,534,-934,22.3,21.5,-0.7,22.7,1.8,-30.0,5.73,2.39,-28.6,28.1
2012-06-22 01:29:00,0.0,1.8862,0.0009,399.19,0.28,6.6,13.4,138.07,30.82,24.64,36.42,0.95,-26.21,-12.16,-55,534,-934,22.3,21.2,-0.9,22.7,1.8,-30.1,5.73,2.39,-28.6,28.0
2012-06-22 01:30:00,0.0,1.8870,0.0009,399.36,0.33,6.5,14.7,138.07,30.82,24.64,36.41,1.01,-26.23,-13.20,-55,534,-934,22.3,20.9,-1.2,22.7,1.8,-30.1,5.73,2.39,-28.6,28.0
2012-06-22 01:31:00,0.0,1.8869,0.0008,399.18,0.26,5.3,14.6,138.07,30.82,24.64,36.41,1.07,-26.24,-14.15,-55,534,-934,22.3,21.6,-0.7,22.7,1.8,-30.1,5.73,2.39,-28.6,28.0
2012-06-22 01:32:00,0.0,1.8861,0.0008,399.18,0.29,3.4,11.8,138.07,30.81,24.64,36.42,0.99,-26.25,-15.08,-55,534,-934,22.3,21.6,-0.7,22.7,1.8,-30.0,5.73,2.40,-28.6,28.0
2012-06-22 01:33:00,0.0,1.8869,0.0008,399.41,0.30,10.6,17.3,138.07,30.81,24.64,36.41,0.96,-26.26,-15.95,-55,534,-934,22.3,21.0,-1.1,22.7,1.8,-30.1,5.73,2.40,-28.6,28.0
2012-06-22 01:34:00,0.0,1.8864,0.0009,399.30,0.35,4.7,9.9,138.07,30.81,24.64,36.41,1.01,-26.28,-16.77,-55,534,-934,22.3,21.1,-1.0,22.7,1.8,-30.3,5.73,2.40,-28.6,28.0
2012-06-22 01:35:00,0.0,1.8868,0.0010,399.22,0.29,4.3,11.7,138.07,30.80,24.64,36.42,1.06,-26.30,-17.45,-55,534,-934,22.3,21.2,-0.9,22.7,1.8,-30.2,5.73,2.40,-28.6,28.0
2012-06-22 01:36:00,0.0,1.8867,0.0008,399.30,0.30,2.6,9.0,138.07,30.80,24.64,36.41,0.99,-26.31,-18.16,-55,534,-934,22.3,20.9,-1.1,22.7,1.8,-30.2,5.73,2.40,-28.6,28.0
2012-06-22 01:37:00,0.0,1.8869,0.0010,399.31,0.27,6.5,15.0,138.07,30.80,24.64,36.41,0.95,-26.32,-18.88,-55,534,-934,22.3,20.9,-1.2,22.7,1.8,-30.3,5.73,2.41,-28.6,27.9
2012-06-22 01:38:00,0.0,1.8867,0.0010,399.27,0.25,2.2,10.0,138.07,30.80,24.64,36.41,1.01,-26.34,-19.55,-55,534,-934,22.3,21.0,-1.1,22.7,1.8,-30.2,5.73,2.41,-28.6,27.9
2012-06-22 01:39:00,0.0,1.8866,0.0010,399.22,0.34,5.4,15.5,138.07,30.80,24.64,36.42,1.05,-26.35,-20.18,-55,534,-934,22.3,21.4,-0.8,22.7,1.8,-30.2,5.73,2.41,-28.6,27.9
2012-06-22 01:40:00,0.0,1.8855,0.0010,399.01,0.31,5.9,13.0,138.07,30.80,24.64,36.41,0.99,-26.37,-20.78,-55,534,-934,22.3,22.6,-0.0,22.7,1.8,-30.2,5.73,2.41,-28.6,27.9
2012-06-22 01:41:00,0.0,1.8856,0.0010,398.96,0.30,5.8,12.7,138.07,30.80,24.64,36.42,0.94,-26.39,-21.34,-55,534,-934,22.3,22.7,0.0,22.7,1.8,-30.2,5.73,2.41,-28.6,27.9
2012-06-22 01:42:00,0.0,1.8852,0.0015,398.90,0.31,5.1,11.1,138.07,30.80,24.64,36.42,0.99,-26.40,-21.86,-55,534,-934,22.3,22.8,0.1,22.7,1.8,-30.3,5.73,2.41,-28.6,27.9
2012-06-22 01:43:00,0.0,1.8857,0.0010,399.08,0.34,5.6,13.4,138.07,30.80,24.64,36.42,1.05,-26.41,-22.35,-55,534,-934,22.3,22.3,-0.3,22.7,1.8,-30.3,5.73,2.41,-28.6,28.0
2012-06-22 01:44:00,0.0,1.8845,0.0011,398.96,0.27,6.3,14.7,138.07,30.80,24.64,36.42,1.00,-26.42,-22.82,-55,534,-934,22.3,22.6,-0.1,22.7,1.8,-30.3,5.73,2.41,-28.6,27.9
2012-06-22 01:45:00,0.0,1.8845,0.0008,399.03,0.30,5.0,12.1,138.07,30.80,24.64,36.42,0.94,-26.44,-23.25,-55,535,-934,22.3,22.3,-0.2,22.7,1.8,-30.4,5.73,2.41,-28.6,27.9
2012-06-22 01:46:00,0.0,1.8852,0.0008,399.07,0.31,4.3,10.5,138.07,30.80,24.64,36.42,0.97,-26.46,-23.65,-55,534,-934,22.3,22.0,-0.4,22.7,1.8,-30.4,5.73,2.41,-28.6,27.9
2012-06-22 01:47:00,0.0,1.8854,0.0009,399.04,0.32,2.2,9.6,138.07,30.79,24.64,36.42,1.02,-26.47,-24.03,-55,534,-934,22.3,22.1,-0.4,22.7,1.8,-30.4,5.73,2.41,-28.6,27.9
2012-06-22 01:48:00,0.0,1.8849,0.0009,399.06,0.31,5.9,15.0,138.07,30.79,24.64,36.42,1.05,-26.48,-24.38,-55,534,-934,22.3,22.0,-0.4,22.6,1.8,-30.4,5.73,2.41,-28.7,27.8
2012-06-22 01:49:00,0.0,1.8848,0.0009,399.05,0.29,2.7,9.4,138.07,30.79,24.64,36.41,0.99,-26.49,-24.71,-55,534,-934,22.3,22.0,-0.4,22.6,1.8,-30.4,5.73,2.42,-28.7,27.9
2012-06-22 01:50:00,0.0,1.8852,0.0009,399.01,0.31,3.0,8.9,138.07,30.78,24.64,36.42,0.94,-26.50,-25.03,-55,534,-934,22.3,22.1,-0.4,22.7,1.8,-30.4,5.73,2.41,-28.7,27.9
2012-06-22 01:51:00,0.0,1.8852,0.0009,399.03,0.32,3.0,9.7,138.07,30.78,24.64,36.42,0.98,-26.51,-25.33,-55,534,-934,22.3,21.8,-0.5,22.7,1.8,-30.4,5.73,2.41,-28.7,27.8
2012-06-22 01:52:00,0.0,1.8849,0.0009,399.17,0.30,4.9,11.8,138.07,30.78,24.64,36.41,1.02,-26.52,-25.61,-55,534,-934,22.3,21.7,-0.6,22.7,1.8,-30.4,5.73,2.41,-28.7,27.8
2012-06-22 01:53:00,0.0,1.8850,0.0010,399.01,0.32,3.5,9.1,138.07,30.78,24.64,36.41,1.04,-26.53,-25.88,-55,534,-934,22.3,22.0,-0.4,22.7,1.8,-30.4,5.73,2.42,-28.6,27.8
2012-06-22 01:54:00,0.0,1.8850,0.0009,399.18,0.33,2.1,8.2,138.07,30.77,24.64,36.41,0.98,-26.54,-26.13,-55,534,-934,22.3,21.7,-0.6,22.7,1.8,-30.4,5.73,2.41,-28.6,27.8
2012-06-22 01:55:00,0.0,1.8851,0.0010,399.11,0.25,6.4,12.4,138.07,30.77,24.64,36.41,0.95,-26.56,-26.37,-55,534,-934,22.3,21.8,-0.6,22.7,1.8,-30.4,5.73,2.41,-28.6,27.8
2012-06-22 01:56:00,0.0,1.8850,0.0010,399.07,0.27,5.7,11.7,138.07,30.77,24.64,36.41,0.97,-26.57,-26.56,-55,534,-934,22.3,21.4,-0.8,22.7,1.8,-30.4,5.73,2.41,-28.6,27.8
2012-06-22 01:57:00,0.0,1.8845,0.0010,399.13,0.25,5.3,12.6,138.07,30.77,24.64,36.41,0.99,-26.58,-26.33,-55,534,-934,22.3,21.4,-0.8,22.7,1.8,-30.5,5.73,2.41,-28.6,27.7
2012-06-22 01:58:00,0.0,1.8848,0.0010,399.11,0.34,5.6,13.7,138.07,30.77,24.64,36.42,1.04,-26.59,-26.37,-55,534,-934,22.3,21.3,-0.9,22.7,1.7,-30.6,5.73,2.41,-28.6,27.8
2012-06-22 01:59:00,0.0,1.8847,0.0009,399.16,0.31,3.2,12.3,138.07,30.77,24.64,36.41,1.02,-26.60,-26.56,-55,535,-934,22.4,21.0,-1.0,22.7,1.7,-30.6,5.73,2.41,-28.7,27.8
2012-06-22 02:00:00,0.0,1.8846,0.0009,399.14,0.27,3.3,9.6,138.07,30.77,24.64,36.41,0.93,-26.61,-26.47,-55,534,-934,22.3,21.2,-1.0,22.7,1.7,-30.6,5.73,2.41,-28.7,27.8
2012-06-22 02:01:00,0.0,1.8847,0.0010,399.08,0.30,1.2,7.3,138.07,30.77,24.64,36.41,0.99,-26.62,-26.37,-55,535,-934,22.3,21.2,-0.9,22.7,1.7,-30.6,5.73,2.41,-28.7,27.8
2012-06-22 02:02:00,0.0,1.8850,0.0008,399.12,0.31,2.8,9.1,138.07,30.76,24.64,36.41,0.96,-26.63,-26.53,-55,535,-934,22.4,21.3,-0.9,22.7,1.7,-30.6,5.73,2.41,-28.7,27.8
2012-06-22 02:03:00,0.0,1.8842,0.0011,399.10,0.29,2.8,11.0,138.07,30.76,24.64,36.41,0.89,-26.64,-26.60,-55,534,-934,22.4,21.2,-0.9,22.7,1.7,-30.6,5.73,2.41,-28.7,27.8
2012-06-22 02:04:00,0.0,1.8849,0.0011,399.11,0.27,5.9,12.0,138.07,30.76,24.64,36.41,0.99,-26.65,-26.39,-55,534,-934,22.3,20.9,-1.1,22.7,1.7,-30.6,5.73,2.41,-28.7,27.8
2012-06-22 02:05:00,0.0,1.8843,0.0008,399.11,0.29,4.4,12.3,138.07,30.76,24.64,36.42,1.04,-26.67,-26.50,-55,534,-934,22.3,21.2,-1.0,22.7,1.7,-30.6,5.73,2.42,-28.7,27.8
2012-06-22 02:06:00,0.0,1.8847,0.0009,399.05,0.28,2.8,8.9,138.07,30.76,24.64,36.41,1.02,-26.67,-26.67,-55,534,-934,22.3,21.0,-1.0,22.6,1.7,-30.6,5.73,2.41,-28.7,27.8
2012-06-22 02:07:00,0.0,1.8852,0.0010,399.27,0.30,2.8,11.3,138.07,30.76,24.64,36.41,0.92,-26.68,-26.44,-55,534,-934,22.3,20.6,-1.3,22.6,1.7,-30.6,5.73,2.42,-28.7,27.8
2012-06-22 02:08:00,0.0,1.8846,0.0010,399.07,0.31,2.8,7.8,138.07,30.76,24.64,36.42,0.96,-26.69,-26.48,-55,534,-934,22.3,20.8,-1.2,22.6,1.7,-30.6,5.73,2.42,-28.7,27.7
2012-06-22 02:09:00,0.0,1.8841,0.0009,398.99,0.28,3.7,9.7,138.07,30.75,24.64,36.42,0.95,-26.70,-26.65,-55,534,-934,22.4,20.9,-1.1,22.6,1.7,-30.6,5.73,2.42,-28.7,27.8
2012-06-22 02:10:00,0.0,1.8843,0.0007,399.07,0.31,4.1,13.5,138.07,30.75,24.64,36.41,0.89,-26.65,-26.58,-55,534,-934,22.4,20.9,-1.1,22.7,1.7,-30.6,5.73,2.41,-28.7,27.7
2012-06-22 02:11:00,0.0,1.8844,0.0009,399.17,0.31,5.0,12.4,138.07,30.75,24.64,36.41,0.96,-25.59,-26.47,-55,534,-934,22.3,20.7,-1.3,22.6,1.8,-30.5,5.73,2.41,-28.7,27.8
2012-06-22 02:12:00,0.0,1.8845,0.0008,399.21,0.29,6.4,11.9,138.07,30.74,24.64,36.41,0.95,-23.74,-26.57,-55,535,-934,22.3,20.6,-1.3,22.6,1.9,-29.7,5.73,2.42,-28.7,27.8
2012-06-22 02:13:00,0.0,1.8848,0.0009,399.12,0.28,4.0,9.7,138.07,30.74,24.64,36.41,0.87,-21.79,-26.67,-55,534,-934,22.3,20.6,-1.3,22.7,2.0,-28.9,5.73,2.42,-28.7,27.8
2012-06-22 02:14:00,0.0,1.8843,0.0008,399.17,0.30,5.4,13.2,138.07,30.74,24.64,36.41,0.83,-19.88,-26.75,-55,534,-934,22.3,20.5,-1.4,22.6,2.1,-28.5,5.73,2.41,-28.7,27.9
2012-06-22 02:15:00,0.0,1.8841,0.0010,399.18,0.31,5.5,11.9,138.07,30.73,24.64,36.41,0.86,-18.07,-26.81,-55,534,-934,22.3,20.6,-1.4,22.6,2.1,-28.4,5.73,2.41,-28.7,27.8
2012-06-22 02:16:00,0.0,1.8837,0.0011,399.09,0.32,4.9,12.1,138.07,30.73,24.64,36.41,0.90,-16.35,-26.86,-55,534,-934,22.3,20.8,-1.2,22.7,2.1,-28.5,5.73,2.42,-28.7,27.9
2012-06-22 02:17:00,0.0,1.8838,0.0012,398.95,0.31,4.6,11.5,138.07,30.73,24.64,36.41,0.94,-14.71,-26.91,-55,534,-934,22.3,21.2,-0.9,22.7,2.1,-28.6,5.73,2.41,-28.7,27.9
2012-06-22 02:18:00,0.0,1.8838,0.0008,398.85,0.28,5.4,13.3,138.07,30.72,24.64,36.42,0.95,-13.16,-26.94,-55,534,-934,22.3,21.4,-0.8,22.6,2.1,-28.8,5.73,2.42,-28.7,27.9
2012-06-22 02:19:00,0.0,1.8839,0.0008,398.91,0.26,5.0,14.0,138.07,30.72,24.64,36.42,0.92,-11.69,-26.97,-55,534,-934,22.3,21.3,-0.9,22.6,2.0,-28.9,5.73,2.42,-28.7,27.9
2012-06-22 02:20:00,0.0,1.8843,0.0010,398.95,0.29,5.3,13.4,138.07,30.72,24.64,36.42,0.87,-10.29,-26.99,-55,534,-934,22.3,21.2,-1.0,22.6,2.0,-29.1,5.73,2.41,-28.7,28.0